ONEWEB-0285, 49075

Orbit data source: Space-Track

ONEWEB-0285, 49075 is a payload satellite owned by One Web (NAA) (UK) in LEO that was launched on Sat, 21 Aug 2021 UTC via a SOYUZ-2-1B launch vehicle from the Tyuratam Missile And Space Complex (TTMTR). Payload-class satellites include a variety of spacecraft equipped with specific instruments for various scientific and technological missions. These include communications satellites like Starlink; space stations such as the ISS; scientific satellites like the Hubble; Earth observation satellites from companies like Planet Labs, Umbra, and HawkEye 360; GPS; miniature CubeSats for education and research; and military/defense satellites.

Loading next visibility...
Identifier
49075, 2021-075A
Orbit
LEO
Country
Flag of UKUK
Related business
Manufacturer
One Web
Mission
Operational Commercial Communications
Bus & Motor
ARROW, Unknown motor
Mass
148 kg wet, ~140 kg dry
Launch date (UTC)
2021-08-21 (5 years ago)
Launch vehicle
SOYUZ-2-1B
Launch site
Tyuratam Missile And Space Complex (TTMTR)
Object type
Payload
Rocket body
Debris
Shape & HBR
Trap Box + 2 Pan, 6.7 m
Radar Cross Section
3.464 m², Medium (>0.1 m² and < 1m²)

Expand to show TLE details & history
Last TLE update: 7 hours ago

TLE from 7 hours ago
0 ONEWEB-0285
1 49075U 21075A   26130.17039397  .00000307  00000-0  81933-3 0  9998
2 49075  87.8978 358.2196 0001712  80.9798 279.1524 13.12443246230229
Epoch: 2026-05-10T04:05Z
TLE epoch observation values (Epoch: 2026-05-10T04:05:22.039Z)
Latitude
-0.00007°
Longitude
68.90045°
Altitude
1,216.407 km
Speed
7.246 km/s
True Right ascension
23h 52m 52s
True Declination
0° 00' 00"
Sunlit
Object was in daylight at epoch
Visualization orbit readout
Latitude
Unknown
Longitude
Unknown
Altitude
Unknown
Speed
Unknown
Apparent Right ascension
Unknown
Apparent Declination
Unknown
Sunlit
N/A
Visualization observer readout
Local Sidereal Time
19:47:45
Azimuth
Unknown
Elevation
Unknown
Doppler factor
Unknown
Orbital elements
Apogee altitude
1,212.138 km
Perigee altitude
1,209.54 km
Semi-major axis
7,588.976 km
Eccentricity
0.00017
Inclination
87.8978°
RAAN
358.2196°
Arg. of periapsis
80.9798°
True anomaly
279.13303°
Mean anomaly
279.1524°
Eccentric anomaly
279.14272°
Mean motion
3.28298 °/min
Orbital period
109.66 mins
BSTAR
0.00081933
Loading maneuver chart data...
Computing Atmospheric mass density...
Loading historical data...
Loading historical data...
Loading historical data...
Loading historical data...
Loading historical data...
Loading historical data...
Loading historical data...

Documentation

Showing up to 5 results
|